This is the latest recevied weather packets stored in our database for station/object WB9FIU. If no packets are shown the sender has not sent any weather packets the latest 1 day(s).
| Time | Temp. | Humidity | Pressure | Rain* | Wind** | Luminosity | Snow |
|---|---|---|---|---|---|---|---|
| 1778040180 | 10° C | 95% | 1007.4 hPa | 0 mm | 0.45 m/s, 337° | - | - |
| 1778040120 | 10° C | 95% | 1007.4 hPa | 0 mm | 0.89 m/s, 353° | - | - |
| 1778040060 | 10° C | 95% | 1007.5 hPa | 0 mm | 0.89 m/s, 355° | - | - |
| 1778040002 | 10° C | 95% | 1007.5 hPa | 0 mm | 0.89 m/s, 355° | - | - |
| 1778039943 | 10° C | 95% | 1007.5 hPa | 4.57 mm | 0.45 m/s, 5° | - | - |
| 1778039822 | 10° C | 95% | 1007.4 hPa | 4.57 mm | 0.45 m/s, 333° | - | - |
| 1778039762 | 10° C | 95% | 1007.4 hPa | 4.57 mm | 0.89 m/s, 317° | - | - |
| 1778039702 | 10° C | 95% | 1007.4 hPa | 4.57 mm | 0.89 m/s, 317° | - | - |
| 1778039642 | 10° C | 95% | 1007.3 hPa | 4.32 mm | 0 m/s | - | - |
| 1778039582 | 10° C | 95% | 1007.3 hPa | 4.32 mm | 0 m/s | - | - |
| 1778039522 | 10° C | 95% | 1007.4 hPa | 4.32 mm | 0.45 m/s, 12° | - | - |
| 1778039462 | 10° C | 95% | 1007.4 hPa | 4.32 mm | 0.45 m/s, 12° | - | - |
| 1778039404 | 10° C | 95% | 1007.5 hPa | 4.57 mm | 0.45 m/s, 345° | - | - |
| 1778039342 | 10° C | 95% | 1007.5 hPa | 4.57 mm | 0.45 m/s, 326° | - | - |
| 1778039282 | 10° C | 95% | 1007.5 hPa | 4.57 mm | 0.45 m/s, 326° | - | - |
| 1778039222 | 10° C | 95% | 1007.6 hPa | 4.32 mm | 0.45 m/s, 275° | - | - |
| 1778039162 | 10° C | 95% | 1007.4 hPa | 4.57 mm | 0.45 m/s, 322° | - | - |
| 1778039102 | 10° C | 95% | 1007.3 hPa | 4.32 mm | 0.45 m/s, 340° | - | - |
| 1778039042 | 10° C | 95% | 1007.3 hPa | 4.32 mm | 0.89 m/s, 310° | - | - |
| 1778038983 | 10° C | 95% | 1007.3 hPa | 4.32 mm | 0.89 m/s, 310° | - | - |
| 1778038923 | 10° C | 95% | 1007.4 hPa | 4.06 mm | 0.89 m/s, 1° | - | - |
| 1778038862 | 10° C | 95% | 1007.4 hPa | 4.06 mm | 0.45 m/s, 291° | - | - |
| 1778038801 | 10° C | 95% | 1007.4 hPa | 4.06 mm | 0.45 m/s, 310° | - | - |
| 1778038682 | 10° C | 95% | 1007.3 hPa | 3.81 mm | 0.45 m/s, 325° | - | - |
| 1778038621 | 10° C | 95% | 1007.2 hPa | 4.06 mm | 0.45 m/s, 8° | - | - |
* Rain latest hour (hover to see other rain measurements)
** Current wind speed in m/s (hover to see current wind gust speed)